TimeCST,TemperatureF,Dew PointF,Humidity,Sea Level PressureIn,VisibilityMPH,Wind Direction,Wind SpeedMPH,Gust SpeedMPH,PrecipitationIn,Events,Conditions,WindDirDegrees,DateUTC
12:15 AM,-2.2,-7.6,78,30.13,10.0,WSW,4.6,-,N/A,,Partly Cloudy,250,2014-02-10 06:15:00
12:35 AM,-0.4,-7.6,72,30.11,10.0,Calm,Calm,-,N/A,,Partly Cloudy,0,2014-02-10 06:35:00
12:55 AM,-0.4,-7.6,72,30.10,10.0,South,6.9,-,N/A,,Partly Cloudy,190,2014-02-10 06:55:00
1:15 AM,-2.2,-7.6,78,30.08,10.0,Calm,Calm,-,N/A,,Clear,0,2014-02-10 07:15:00
1:35 AM,-2.2,-7.6,78,30.07,10.0,SE,3.5,-,N/A,,Mostly Cloudy,140,2014-02-10 07:35:00
1:55 AM,-0.4,-5.8,78,30.08,10.0,Calm,Calm,-,N/A,,Overcast,0,2014-02-10 07:55:00
2:15 AM,-2.2,-7.6,78,30.08,10.0,WSW,3.5,-,N/A,,Overcast,250,2014-02-10 08:15:00
2:35 AM,-0.4,-4.0,85,30.06,10.0,South,5.8,-,N/A,,Scattered Clouds,170,2014-02-10 08:35:00
2:55 AM,-2.2,-7.6,78,30.06,10.0,Calm,Calm,-,N/A,,Clear,0,2014-02-10 08:55:00
3:15 AM,-2.2,-7.6,78,30.06,10.0,SW,3.5,-,N/A,,Clear,220,2014-02-10 09:15:00
3:35 AM,-0.4,-5.8,78,30.07,10.0,West,5.8,-,N/A,,Mostly Cloudy,260,2014-02-10 09:35:00
3:55 AM,-0.4,-5.8,78,30.06,10.0,WNW,3.5,-,N/A,,Overcast,300,2014-02-10 09:55:00
4:15 AM,-0.4,-4.0,85,30.06,10.0,West,6.9,-,N/A,,Overcast,260,2014-02-10 10:15:00
4:35 AM,-0.4,-4.0,85,30.06,10.0,West,5.8,-,N/A,,Overcast,270,2014-02-10 10:35:00
4:55 AM,-0.4,-4.0,85,30.06,10.0,West,3.5,-,N/A,,Scattered Clouds,280,2014-02-10 10:55:00
5:15 AM,-0.4,-4.0,85,30.06,10.0,SW,3.5,-,N/A,,Partly Cloudy,230,2014-02-10 11:15:00
5:35 AM,-0.4,-4.0,85,30.05,10.0,SSE,3.5,-,N/A,,Partly Cloudy,160,2014-02-10 11:35:00
5:55 AM,-2.2,-7.6,78,30.04,10.0,SE,6.9,-,N/A,,Clear,140,2014-02-10 11:55:00
6:15 AM,-0.4,-4.0,85,30.04,10.0,SE,5.8,-,N/A,,Scattered Clouds,140,2014-02-10 12:15:00
6:35 AM,1.4,-2.2,85,30.03,10.0,SSE,4.6,-,N/A,,Overcast,150,2014-02-10 12:35:00
6:55 AM,1.4,-2.2,85,30.03,10.0,Calm,Calm,-,N/A,,Overcast,0,2014-02-10 12:55:00
7:15 AM,3.2,-0.4,85,30.02,10.0,East,3.5,-,N/A,,Overcast,100,2014-02-10 13:15:00
7:35 AM,1.4,-2.2,85,30.02,10.0,ESE,3.5,-,N/A,,Overcast,120,2014-02-10 13:35:00
7:55 AM,3.2,-0.4,85,30.02,10.0,Calm,Calm,-,N/A,,Overcast,0,2014-02-10 13:55:00
8:15 AM,5.0,-0.4,78,30.02,10.0,Calm,Calm,-,N/A,,Overcast,0,2014-02-10 14:15:00
8:35 AM,5.0,-0.4,78,30.03,10.0,North,-9999.0,-,N/A,,Scattered Clouds,0,2014-02-10 14:35:00
8:55 AM,5.0,-0.4,78,30.04,10.0,Calm,Calm,-,N/A,,Clear,0,2014-02-10 14:55:00
9:15 AM,6.8,-0.4,72,30.04,10.0,NNE,4.6,-,N/A,,Clear,30,2014-02-10 15:15:00
9:35 AM,5.0,-0.4,78,30.04,10.0,Calm,Calm,-,N/A,,Clear,0,2014-02-10 15:35:00
9:55 AM,5.0,-0.4,78,30.05,10.0,Calm,Calm,-,N/A,,Clear,0,2014-02-10 15:55:00
10:15 AM,5.0,-0.4,78,30.05,10.0,West,5.8,-,N/A,,Clear,270,2014-02-10 16:15:00
10:35 AM,3.2,-0.4,85,30.06,10.0,West,3.5,-,N/A,,Clear,270,2014-02-10 16:35:00
10:55 AM,5.0,-0.4,78,30.07,10.0,Calm,Calm,-,N/A,,Clear,0,2014-02-10 16:55:00
11:15 AM,6.8,1.4,79,30.06,6.0,Calm,Calm,-,N/A,Snow,Light Snow,0,2014-02-10 17:15:00
11:35 AM,10.4,3.2,73,30.07,3.0,Calm,Calm,-,0.01,Snow,Light Snow,0,2014-02-10 17:35:00
11:55 AM,10.4,5.0,79,30.07,2.0,Calm,Calm,-,0.04,Snow,Light Snow,0,2014-02-10 17:55:00
12:15 PM,10.4,6.8,85,30.06,2.0,Calm,Calm,-,0.03,Snow,Light Snow,0,2014-02-10 18:15:00
12:35 PM,14.0,8.6,79,30.05,1.2,Calm,Calm,-,0.19,Snow,Light Snow,0,2014-02-10 18:35:00
12:55 PM,14.0,8.6,79,30.05,3.0,Calm,Calm,-,0.24,Snow,Light Snow,0,2014-02-10 18:55:00
1:15 PM,15.8,10.4,79,30.05,10.0,ENE,3.5,-,N/A,,Partly Cloudy,60,2014-02-10 19:15:00
1:35 PM,14.0,8.6,79,30.05,6.0,Calm,Calm,-,N/A,Snow,Light Snow,0,2014-02-10 19:35:00
1:55 PM,17.6,10.4,73,30.04,10.0,Calm,Calm,-,N/A,,Clear,0,2014-02-10 19:55:00
2:15 PM,15.8,8.6,73,30.04,10.0,East,3.5,-,N/A,,Clear,90,2014-02-10 20:15:00
2:35 PM,15.8,10.4,79,30.03,10.0,Calm,Calm,-,N/A,,Clear,0,2014-02-10 20:35:00
2:55 PM,17.6,14.0,86,30.03,10.0,Calm,Calm,-,N/A,,Partly Cloudy,0,2014-02-10 20:55:00
3:15 PM,14.0,8.6,79,30.03,10.0,NE,8.1,-,N/A,,Partly Cloudy,50,2014-02-10 21:15:00
3:35 PM,10.4,6.8,85,30.04,10.0,ENE,3.5,-,N/A,,Clear,70,2014-02-10 21:35:00
3:55 PM,12.2,6.8,79,30.05,10.0,Calm,Calm,-,N/A,,Clear,0,2014-02-10 21:55:00
4:15 PM,14.0,6.8,73,30.05,10.0,Calm,Calm,-,N/A,,Clear,0,2014-02-10 22:15:00
4:35 PM,12.2,6.8,79,30.05,10.0,West,4.6,-,N/A,,Partly Cloudy,280,2014-02-10 22:35:00
4:55 PM,12.2,6.8,79,30.06,9.0,West,5.8,-,N/A,,Clear,260,2014-02-10 22:55:00
5:15 PM,12.2,6.8,79,30.06,9.0,Calm,Calm,-,N/A,,Scattered Clouds,0,2014-02-10 23:15:00
5:35 PM,12.2,6.8,79,30.05,10.0,Calm,Calm,-,N/A,,Mostly Cloudy,0,2014-02-10 23:35:00
5:55 PM,10.4,6.8,85,30.05,9.0,Calm,Calm,-,N/A,,Overcast,0,2014-02-10 23:55:00
6:15 PM,12.2,6.8,79,30.06,7.0,Calm,Calm,-,N/A,,Overcast,0,2014-02-11 00:15:00
6:35 PM,12.2,6.8,79,30.07,8.0,Calm,Calm,-,N/A,,Overcast,0,2014-02-11 00:35:00
6:55 PM,10.4,6.8,85,30.07,10.0,Calm,Calm,-,N/A,,Overcast,0,2014-02-11 00:55:00
7:15 PM,10.4,6.8,85,30.06,9.0,South,3.5,-,N/A,,Overcast,180,2014-02-11 01:15:00
7:35 PM,8.6,5.0,85,30.06,10.0,East,3.5,-,N/A,,Mostly Cloudy,80,2014-02-11 01:35:00
7:55 PM,8.6,5.0,85,30.06,10.0,ESE,5.8,-,N/A,,Mostly Cloudy,120,2014-02-11 01:55:00
8:15 PM,8.6,5.0,85,30.06,10.0,South,3.5,-,N/A,,Scattered Clouds,170,2014-02-11 02:15:00
8:35 PM,8.6,5.0,85,30.06,10.0,WSW,5.8,-,N/A,,Clear,250,2014-02-11 02:35:00
8:55 PM,8.6,6.8,92,30.05,10.0,South,4.6,-,N/A,,Clear,180,2014-02-11 02:55:00
9:15 PM,6.8,5.0,92,30.05,10.0,SE,4.6,-,N/A,,Clear,130,2014-02-11 03:15:00
9:35 PM,10.4,8.6,92,30.04,10.0,Calm,Calm,-,N/A,,Clear,0,2014-02-11 03:35:00
9:55 PM,10.4,6.8,85,30.04,10.0,SSE,4.6,-,N/A,,Clear,150,2014-02-11 03:55:00
10:15 PM,6.8,5.0,92,30.03,10.0,South,3.5,-,N/A,,Clear,170,2014-02-11 04:15:00
10:35 PM,8.6,5.0,85,30.03,10.0,Calm,Calm,-,N/A,,Clear,0,2014-02-11 04:35:00
10:55 PM,8.6,6.8,92,30.02,10.0,Calm,Calm,-,N/A,,Clear,0,2014-02-11 04:55:00
11:15 PM,10.4,6.8,85,30.01,10.0,Calm,Calm,-,N/A,,Clear,0,2014-02-11 05:15:00
11:35 PM,8.6,6.8,92,30.01,10.0,Calm,Calm,-,N/A,,Clear,0,2014-02-11 05:35:00
11:55 PM,10.4,8.6,92,30.00,10.0,Calm,Calm,-,N/A,,Clear,0,2014-02-11 05:55:00